Location: Gwatt
(46.7204°N, 7.6223°E)
Time: 01:36:42
(UTC+00:00)

Cosmos 494 Rocket - Pass Details

Date: 18 September 2020
Orbit: 741 x 771 km, 74.1° (Epoch: 31 October)

Event Time Altitude Azimuth Distance (km) Brightness Sun altitude
Rises 19:57:14 0° 337° (NNW) 3,244 8.1 -24.1°
Reaches altitude 10° 19:59:37 10° 336° (NNW) 2,317 7.2 -24.4°
Maximum altitude 20:04:53 79° 250° (WSW) 789 4.0 -25.2°
Enters shadow 20:05:39 64° 184° (S) 850 4.0 -25.3°
